OPS 4682 DEB, 18670

Orbit data source: Space-Track

OPS 4682 DEB, 18670 is space debris in LEO originally from a launch on Sat, 03 Apr 1965 UTC launched from the Air Force Western Test Range (AFWTR). Debris objects in space refer to the collection of defunct objects orbiting the Earth. Examples of debris include non-operational satellites, rocket bodies, and fragments generated from explosions, collisions, or faulty payload assembly.

Loading next visibility...
Identifier
18670, 1965-027AG
Orbit
LEO
Country
Flag of USUS
Related business
Manufacturer
Unknown
Mission
Spacecraft
Bus & Motor
Unknown
Mass
Unknown
Launch date (UTC)
1965-04-03 (61 years ago)
Launch vehicle
Unknown
Launch site
Air Force Western Test Range (AFWTR)
Object type
Payload
Rocket body
Debris
Shape & HBR
Unknown shape, 0.1 m
Radar Cross Section
Small (<0.1 m²)

Expand to show TLE details & history
Last TLE update: 2 days ago

TLE from 2 days ago
0 OPS 4682 DEB
1 18670U 65027AG  25347.72378478  .00000339  00000-0  11492-2 0  9993
2 18670  90.2352 352.2635 0022316 260.3583  99.5016 12.97123826638729
Epoch: 2025-12-13T17:22Z
TLE epoch observation values (Epoch: 2025-12-13T17:22:15.004Z)
Latitude
-0.00003°
Longitude
9.05402°
Altitude
1,279.112 km
Speed
7.215 km/s
True Right ascension
23h 29m 03s
True Declination
0° 00' 00"
Sunlit
Object was in daylight at epoch
Visualization orbit readout
Latitude
Unknown
Longitude
Unknown
Altitude
Unknown
Speed
Unknown
Apparent Right ascension
Unknown
Apparent Declination
Unknown
Sunlit
N/A
Visualization observer readout
Local Sidereal Time
13:24:34
Azimuth
Unknown
Elevation
Unknown
Doppler factor
Unknown
Orbital elements
Apogee altitude
1,287.576 km
Perigee altitude
1,253.439 km
Semi-major axis
7,648.645 km
Eccentricity
0.00223
Inclination
90.2352°
RAAN
352.2635°
Arg. of periapsis
260.3583°
True anomaly
99.7537°
Mean anomaly
99.5016°
Eccentric anomaly
99.62766°
Mean motion
3.24464 °/min
Orbital period
110.95 mins
BSTAR
0.0011492
Loading maneuver chart data...
Computing Atmospheric mass density...
Loading historical data...
Loading historical data...
Loading historical data...
Loading historical data...
Loading historical data...
Loading historical data...
Loading historical data...

Documentation

Showing up to 5 results
|